COSMOS 1275 DEB, 13814

Orbit data source: Space-Track

COSMOS 1275 DEB, 13814 is space debris in LEO originally from a launch on Thu, 04 Jun 1981 UTC launched from the Plesetsk Missile And Space Complex (PKMTR). Debris objects in space refer to the collection of defunct objects orbiting the Earth. Examples of debris include non-operational satellites, rocket bodies, and fragments generated from explosions, collisions, or faulty payload assembly.

Loading next visibility...
Identifier
13814, 1981-053HJ
Orbit
LEO
Country
Flag of CISCIS
Related business
Manufacturer
Unknown
Mission
Spacecraft
Bus & Motor
Unknown
Mass
Unknown
Launch date (UTC)
1981-06-04 (44 years ago)
Launch vehicle
Unknown
Launch site
Plesetsk Missile And Space Complex (PKMTR)
Object type
Payload
Rocket body
Debris
Shape & HBR
Unknown shape, 0.1 m
Radar Cross Section
Small (<0.1 m²)

Expand to show TLE details & history
Last TLE update: 9 hours ago

TLE from 9 hours ago
0 COSMOS 1275 DEB
1 13814U 81053HJ  25286.62949404  .00018196  00000-0  34915-2 0  9994
2 13814  82.9203 117.1436 0006314 127.7839 319.8962 14.63619974203066
Epoch: 2025-10-13T15:06Z
TLE epoch observation values (Epoch: 2025-10-13T15:06:28.285Z)
Latitude
82.57595°
Longitude
-60.46217°
Altitude
691.668 km
Speed
7.519 km/s
True Right ascension
12h 34m 20s
True Declination
82° 31' 53"
Sunlit
Object was in daylight at epoch
Visualization orbit readout
Latitude
Unknown
Longitude
Unknown
Altitude
Unknown
Speed
Unknown
Apparent Right ascension
Unknown
Apparent Declination
Unknown
Sunlit
N/A
Visualization observer readout
Local Sidereal Time
18:43:49
Azimuth
Unknown
Elevation
Unknown
Doppler factor
Unknown
Orbital elements
Apogee altitude
682.993 km
Perigee altitude
674.082 km
Semi-major axis
7,056.675 km
Eccentricity
0.00063
Inclination
82.9203°
RAAN
117.1436°
Arg. of periapsis
127.7839°
True anomaly
319.84956°
Mean anomaly
319.8962°
Eccentric anomaly
319.87288°
Mean motion
3.66136 °/min
Orbital period
98.32 mins
BSTAR
0.0034915
Loading maneuver chart data...
Computing Atmospheric mass density...
Loading historical data...
Loading historical data...
Loading historical data...
Loading historical data...
Loading historical data...
Loading historical data...
Loading historical data...

Documentation

Showing up to 5 results
|